Location: Dackenheim
(49.5215°N, 8.1854°E)
Time: 02:24:14
(UTC+00:00)

AO-85 - Pass Details

Date: 20 March 2026
Orbit: 507 x 686 km, 64.8° (Epoch: 12 April)

Event Time Altitude Azimuth Distance (km) Brightness Sun altitude
Exits shadow 04:56:16 - 289° (WNW) 2,109 ? -6.4°
Reaches altitude 10° 04:57:41 10° 304° (WNW) 1,748 ? -6.1°
Maximum altitude 04:59:45 14° 336° (NNW) 1,509 ? -5.8°
Drops below altitude 10° 05:01:49 10° 9° (N) 1,734 ? -5.5°
Sets 05:04:55 0° 36° (NE) 2,621 ? -5.0°
